This demonstration page uses our WeatherBlox Daily Observations layout. Learn more.

Left ArrowRight Arrow

Hourly Observations for November 6, 2022

Temp ( °F °C ) Dew Point ( °F °C ) Humidity (%) Winds ( mph kmh ) Pressure ( in mb ) Visibility ( mi km ) Precip ( " mm )
12:55 am 00:55 Cloudy 54 12 38 3.2 55 55 SSW 15 24 29.59 1002 10 16 0.00 0.00
1:55 am 01:55 Cloudy 53 11.8 38 3.6 57 57 SSW 18 30 29.60 1002 10 16 0.00 0.00
1:55 am 01:55 Cloudy 53 11.5 39 3.8 59 59 SW 12 19 29.63 1004 10 16 0.00 0.00
2:55 am 02:55 Cloudy 53 11.4 39 3.9 60 60 SW 9 15 29.68 1005 10 16 0.00 0.00
3:55 am 03:55 Cloudy 52 11 39 3.8 61 61 WSW 3 6 29.71 1006 10 16 0.00 0.00
4:55 am 04:55 Cloudy 51 10.6 39 3.8 63 63 W 6 9 29.75 1008 10 16 0.00 0.00
5:55 am 05:55 Cloudy 50 10 39 3.9 66 66 WNW 7 11 29.81 1009 10 16 0.00 0.00
6:55 am 06:55 Cloudy 49 9.4 39 4 69 69 W 6 9 29.87 1012 10 16 0.00 0.00
7:55 am 07:55 Mostly Cloudy 52 11 30 -1.1 43 43 NNW 9 15 29.90 1012 10 16 0.00 0.00
8:55 am 08:55 Partly Cloudy 55 12.6 22 -5.4 28 28 N 12 19 29.95 1014 10 16 0.00 0.00
9:55 am 09:55 Cloudy 54 12.2 20 -6.8 26 26 NNW 18 30 29.96 1015 10 16 0.00 0.00
10:55 am 10:55 Cloudy 55 12.8 19 -7.3 24 24 N 16 26 30.00 1016 10 16 0.00 0.00
11:55 am 11:55 Cloudy 57 14.1 17 -8.5 20 20 N 12 19 30.02 1017 10 16 0.00 0.00
12:55 pm 12:55 Cloudy 59 14.8 15 -9.3 18 18 N 14 22 30.04 1017 10 16 0.00 0.00
1:55 pm 13:55 Sunny 59 15 11 -11.5 15 15 NNW 13 20 30.06 1018 10 16 0.00 0.00
2:55 pm 14:55 Mostly Sunny 59 14.8 14 -10 17 17 N 12 19 30.09 1019 10 16 0.00 0.00
3:55 pm 15:55 Partly Cloudy 58 14.6 12 -11 16 16 NNW 10 17 30.12 1020 10 16 0.00 0.00
4:55 pm 16:55 Mostly Cloudy 56 13.4 14 -9.8 19 19 NNW 10 17 30.17 1022 10 16 0.00 0.00
5:55 pm 17:55 Cloudy 54 12.4 14 -10 20 20 NNW 5 7 30.19 1022 10 16 0.00 0.00
6:55 pm 18:55 Cloudy 53 11.7 14 -9.9 21 21 NNW 7 11 30.24 1024 10 16 0.00 0.00
7:55 pm 19:55 Mostly Clear 49 9.6 16 -9 26 26 NNW 3 6 30.26 1025 10 16 0.00 0.00
8:55 pm 20:55 Clear 47 8.6 15 -9.4 27 27 NNW 5 7 30.30 1026 10 16 0.00 0.00
9:55 pm 21:55 Clear 45 7.3 16 -8.7 31 31 NW 6 9 30.33 1027 10 16 0.00 0.00
10:55 pm 22:55 Clear 41 5.1 20 -6.8 42 42 Calm 30.37 1029 10 16 0.00 0.00
11:55 pm 23:55 Clear 41 5.1 19 -7.4 40 40 N 9 15 30.39 1029 10 16 0.00 0.00

Powered by AerisWeather